EW1175 Weather Reports


time (UTC)temp
F
wind
direction
speed
knots
gust
knots
rain 1hr
in
rain 24hr
in
rain mn
in
humidity
%
barometer
mb
20260506061543 55 179 0.0 0.9 0.00 0.00 0.00 85 1017.6
20260506044542 55 108 0.0 0.0 0.00 0.00 0.00 84 1017.0
20260506043035 55 109 0.0 0.0 0.00 0.00 0.00 84 1016.9
20260506041550 56 109 0.0 0.0 0.00 0.00 0.00 82 1016.8
20260506040034 56 109 0.0 0.0 0.00 0.00 0.00 81 1016.6
20260506034547 57 109 0.0 0.0 0.00 0.00 0.00 79 1016.4
20260506033033 58 109 0.0 0.0 0.00 0.00 0.00 77 1016.3
20260506031532 58 108 0.0 0.0 0.00 0.00 0.00 76 1016.1
20260506030037 59 109 0.0 0.0 0.00 0.00 0.00 74 1016.0
20260506024533 60 109 0.0 0.0 0.00 0.00 0.00 74 1016.0
20260506023030 61 109 0.0 0.0 0.00 0.00 0.00 73 1015.9
20260506021530 61 109 0.0 0.0 0.00 0.00 0.00 71 1015.9
20260506020029 62 106 0.0 0.9 0.00 0.00 0.00 71 1015.9
20260506014528 62 148 0.0 1.7 0.00 0.00 0.00 69 1016.0
20260506013038 63 130 0.0 0.9 0.00 0.00 0.00 69 1015.9
20260506011528 63 125 0.0 0.9 0.00 0.00 0.00 70 1015.9
20260506010032 63 145 0.0 0.9 0.00 0.00 0.00 69 1016.0
20260506004526 64 130 0.0 0.9 0.00 0.00 0.00 68 1016.0
20260506003027 64 5 0.0 1.7 0.00 0.00 0.00 68 1016.0
20260506001524 64 123 0.0 0.9 0.00 0.00 0.00 68 1015.9
20260506000023 64 114 0.0 0.9 0.00 0.00 0.00 67 1016.0
20260505234523 64 135 0.0 1.7 0.00 0.00 0.00 67 1016.1
20260505233027 65 122 0.0 1.7 0.00 0.00 0.00 65 1016.3
20260505231524 65 103 0.0 4.3 0.00 0.00 0.00 65 1016.4
20260505230021 66 122 0.0 2.6 0.00 0.00 0.00 64 1016.5
20260505224521 67 117 0.0 0.9 0.00 0.00 0.00 62 1016.7
20260505223020 68 113 0.0 1.7 0.00 0.00 0.00 61 1016.7
20260505221520 68 89 0.0 1.7 0.00 0.00 0.00 61 1016.7
20260505220030 68 21 0.9 2.6 0.00 0.00 0.00 60 1016.9
20260505214522 69 111 0.0 4.3 0.00 0.00 0.00 60 1016.9
20260505213018 67 120 0.0 1.7 0.00 0.00 0.00 63 1017.0
20260505211519 70 222 0.0 1.7 0.00 0.00 0.00 58 1017.0
20260505210015 68 129 0.0 0.9 0.00 0.00 0.00 63 1017.0
20260505204514 67 113 0.0 2.6 0.00 0.00 0.00 61 1017.2
20260505203013 69 117 0.0 1.7 0.00 0.00 0.00 59 1017.2
20260505201510 67 82 0.9 4.3 0.00 0.00 0.00 64 1017.2
20260505200015 67 61 0.0 2.6 0.00 0.00 0.00 65 1017.3
20260505194507 65 91 0.0 4.3 0.00 0.00 0.00 66 1017.3
20260505193006 64 127 0.0 1.7 0.00 0.00 0.00 68 1017.4
20260505191515 63 108 0.0 1.7 0.00 0.00 0.00 71 1017.4
20260505190008 63 131 0.0 0.9 0.00 0.00 0.00 73 1017.4
20260505184505 62 141 0.0 2.6 0.00 0.00 0.00 74 1017.5
20260505183002 62 117 0.0 0.9 0.00 0.00 0.00 74 1017.3
20260505181502 63 101 0.0 2.6 0.00 0.00 0.00 70 1017.2
20260505180001 62 117 0.0 0.9 0.00 0.00 0.00 72 1017.1
20260505174501 64 131 0.0 2.6 0.00 0.00 0.00 69 1017.2
20260505173100 66 101 0.0 1.7 0.00 0.00 0.00 65 1017.2
20260505171559 66 118 0.0 0.9 0.00 0.00 0.00 65 1017.2
20260505170058 67 193 0.0 0.9 0.00 0.00 0.00 66 1017.2
20260505164555 63 142 0.0 0.9 0.00 0.00 0.00 72 1017.2
20260505163054 64 94 0.0 0.9 0.00 0.00 0.00 70 1017.2
20260505161554 63 77 0.0 1.7 0.00 0.00 0.00 71 1017.1
20260505153049 64 90 0.0 2.6 0.00 0.00 0.00 68 1017.0
20260505151548 63 165 0.0 0.9 0.00 0.00 0.00 69 1016.9
20260505124516 0 0.0 0.0 0.00 0.00 0.00 1015.3
20260505123007 0 0.0 0.0 0.00 0.00 0.00 1015.1
20260505121509 0 0.0 0.0 0.00 0.00 0.00 1015.0
20260505120113 0 0.0 0.0 0.00 0.00 0.00 1014.9
20260505114555 0 0.0 0.0 0.00 0.00 0.00 1014.7
20260505113058 0 0.0 0.0 0.00 0.00 0.00 1014.5
20260505111546 0 0.0 0.0 0.00 0.00 0.00 1014.4
20260505101535 55 188 0.0 0.9 0.00 0.00 0.00 77 1013.9
20260505100033 55 162 0.0 0.9 0.00 0.00 0.00 78 1013.6
20260505094525 55 137 0.0 0.9 0.00 0.00 0.00 80 1013.5
20260505093022 55 130 0.0 0.0 0.00 0.00 0.00 81 1013.3
20260505091518 56 130 0.0 0.0 0.00 0.00 0.00 79 1013.1
20260505090033 56 130 0.0 0.0 0.00 0.00 0.00 78 1013.0
20260505084511 57 129 0.0 0.0 0.00 0.00 0.00 76 1012.7
20260505083008 58 130 0.0 0.0 0.00 0.00 0.00 74 1012.6
20260505081507 58 129 0.0 0.0 0.00 0.00 0.00 72 1012.5
20260505080007 59 130 0.0 0.0 0.00 0.00 0.00 72 1012.4
20260505074502 59 130 0.0 0.0 0.00 0.00 0.00 72 1012.3
20260505073103 60 130 0.0 0.0 0.00 0.00 0.00 70 1012.1
20260505071553 61 130 0.0 0.0 0.00 0.00 0.00 69 1011.9